Hourly Data Report for July 07, 2011

HALIFAX STANFIELD INT'L A
NOVA SCOTIA

44°52'48.060" N
63°30'00.050" W
145.40 m
8202250
71395
YHZ

Download Data

Hourly Data (July 2011)
Hourly Data Report for July 7, 2011
TIME
LST
Temp Definition
°C
Dew Point Definition
°C
Rel Hum Definition
%
Precip. Amount Definition
mm

Wind Dir Definition
10's deg

Wind Spd Definition
km/h
Visibility Definition
km
Stn Press Definition
kPa
Hmdx Definition


Wind Chill Definition


Weather Definition


00:00 15.2 14.4 95   18 17 1.6 99.35     Fog
01:00 14.6 13.6 94   18 22 1.6 99.31     Fog
02:00 14.6 13.9 96   19 17 1.2 99.29     Fog
03:00 14.9 14.2 96   18 20 0.8 99.19     Fog
04:00 15.1 14.4 96   19 26 1.0 99.17     Fog
05:00 15.0 14.2 95   19 19 0.4 99.17     Fog
06:00 15.1 14.4 96   21 13 0.4 99.25     Fog
07:00 16.6 15.4 93   22 15 16.1 99.25     Mostly Cloudy
08:00 20.2 16.3 78   24 13 19.3 99.25 25   Mainly Clear
09:00 22.6 17.2 72   23 17 24.1 99.25 28   Mainly Clear
10:00 23.7 17.6 69   22 15 24.1 99.22 29   Mainly Clear
11:00 25.7 18.3 64   22 15 24.1 99.21 32   Mainly Clear
12:00 26.9 17.3 56   26 15 24.1 99.16 32   Mainly Clear
13:00 28.3 17.6 52   25 20 24.1 99.11 34   Mainly Clear
14:00 27.7 17.8 55   21 24 24.1 99.09 34   Mainly Clear
15:00 26.5 17.5 58   20 30 24.1 99.13 32   Mainly Clear
16:00 26.0 17.7 60   23 11 24.1 99.16 32   Mainly Clear
17:00 25.9 15.0 51   30 15 24.1 99.17 30   Mainly Clear
18:00 25.0 13.6 49   32 15 24.1 99.21 28   Mainly Clear
19:00 24.4 13.9 52   30 17 24.1 99.26 28   Mainly Clear
20:00 22.0 14.4 62   33 11 24.1 99.32 26   Mainly Clear
21:00 20.6 14.0 66   33 7 24.1 99.41     Mainly Clear
22:00 17.9 13.9 77   34 11 24.1 99.46     Clear
23:00 17.7 13.8 78   33 9 24.1 99.49     Mainly Clear

Notes on Data Quality.

Legend

  • E = Estimated
  • M = Missing
  • NA = Not Available*
  • [empty] = Indicates an unobserved value
Date modified: